Location: S�deilles
(46.7500°N, 6.9329°E)
Time: 16:32:04
(UTC+00:00)

Cosmos 1934 Rocket - Pass Details

Date: 08 March 2021
Orbit: 939 x 998 km, 83.0° (Epoch: 20 April)

Event Time Altitude Azimuth Distance (km) Brightness Sun altitude
Exits shadow 19:30:02 38° 83° (E) 1,417 4.4 -21.5°
Drops below altitude 10° 19:35:24 10° 23° (NNE) 2,700 6.3 -22.3°
Sets 19:38:05 0° 15° (NNE) 3,660 7.1 -22.8°
